Precipitable_Water
0.56 0.57 0.57 0.57 0.57 0.56 0.56 0.54 0.52 0.51 0.49 0.46 0.44 0.43 0.41 0.39 0.36 0.32 0.29 0.27 0.28 0.31 0.35 0.41 0.45 0.45 0.44 0.44 0.43 0.43 0.43 0.41 0.40 0.38 0.36 0.35 0.33 0.31 0.30 0.28 0.27 0.26 0.26 0.29 0.30 0.28 0.27 0.27 0.26 0.24 0.24 0.22 0.22 0.22 0.22 0.23 0.22 0.23 0.22 0.23 0.22 0.22 0.22
0.55 0.56 0.56 0.56 0.55 0.54 0.53 0.52 0.51 0.49 0.47 0.43 0.41 0.39 0.39 0.37 0.34 0.32 0.30 0.29 0.28 0.32 0.37 0.43 0.45 0.47 0.48 0.46 0.44 0.43 0.42 0.40 0.38 0.37 0.35 0.34 0.32 0.30 0.29 0.28 0.27 0.26 0.25 0.25 0.27 0.26 0.27 0.26 0.25 0.23 0.24 0.22 0.22 0.21 0.22 0.21 0.22 0.22 0.23 0.22 0.22 0.21 0.21
0.54 0.55 0.55 0.55 0.54 0.53 0.51 0.50 0.49 0.47 0.44 0.41 0.38 0.36 0.34 0.33 0.33 0.31 0.30 0.30 0.31 0.35 0.41 0.46 0.48 0.48 0.46 0.44 0.43 0.41 0.39 0.38 0.36 0.35 0.33 0.32 0.30 0.29 0.28 0.27 0.26 0.25 0.24 0.24 0.25 0.27 0.25 0.24 0.24 0.23 0.23 0.23 0.22 0.22 0.21 0.21 0.21 0.21 0.21 0.21 0.21 0.20 0.20
0.53 0.54 0.54 0.54 0.53 0.52 0.51 0.49 0.47 0.45 0.42 0.39 0.36 0.34 0.32 0.31 0.31 0.32 0.33 0.34 0.36 0.38 0.41 0.43 0.44 0.43 0.43 0.42 0.40 0.39 0.37 0.36 0.34 0.33 0.32 0.30 0.29 0.27 0.27 0.26 0.26 0.26 0.25 0.24 0.23 0.25 0.24 0.24 0.23 0.23 0.23 0.22 0.22 0.21 0.21 0.21 0.21 0.21 0.20 0.20 0.20 0.19 0.19
0.53 0.53 0.52 0.52 0.52 0.51 0.50 0.48 0.46 0.43 0.40 0.37 0.35 0.33 0.32 0.31 0.31 0.32 0.34 0.35 0.38 0.40 0.42 0.43 0.44 0.45 0.44 0.42 0.40 0.37 0.36 0.34 0.33 0.32 0.31 0.29 0.28 0.27 0.27 0.27 0.26 0.26 0.25 0.24 0.23 0.23 0.24 0.23 0.22 0.22 0.22 0.22 0.20 0.20 0.20 0.20 0.19 0.19 0.19 0.19 0.18 0.18 0.18
0.51 0.51 0.51 0.50 0.50 0.50 0.49 0.47 0.45 0.42 0.38 0.36 0.34 0.32 0.32 0.33 0.33 0.34 0.36 0.39 0.42 0.44 0.45 0.45 0.44 0.43 0.42 0.40 0.38 0.36 0.35 0.33 0.31 0.30 0.29 0.28 0.27 0.26 0.26 0.25 0.25 0.25 0.24 0.23 0.22 0.22 0.22 0.22 0.21 0.21 0.21 0.21 0.20 0.19 0.18 0.18 0.19 0.18 0.18 0.18 0.17 0.16 0.17
0.49 0.49 0.48 0.48 0.48 0.48 0.47 0.45 0.43 0.40 0.38 0.36 0.34 0.33 0.33 0.33 0.35 0.37 0.38 0.40 0.42 0.42 0.43 0.43 0.42 0.41 0.40 0.38 0.36 0.34 0.32 0.31 0.30 0.29 0.28 0.27 0.26 0.26 0.25 0.24 0.24 0.24 0.23 0.23 0.22 0.21 0.21 0.21 0.21 0.21 0.19 0.20 0.20 0.19 0.18 0.17 0.17 0.16 0.17 0.17 0.16 0.15 0.15
0.47 0.47 0.47 0.46 0.46 0.45 0.44 0.43 0.41 0.39 0.37 0.36 0.35 0.34 0.35 0.35 0.36 0.38 0.39 0.40 0.41 0.42 0.41 0.41 0.40 0.39 0.37 0.36 0.35 0.33 0.32 0.31 0.30 0.29 0.28 0.27 0.26 0.25 0.25 0.24 0.24 0.23 0.23 0.22 0.22 0.21 0.20 0.20 0.20 0.19 0.19 0.19 0.18 0.17 0.16 0.17 0.16 0.15 0.15 0.15 0.16 0.15 0.15
0.46 0.46 0.45 0.44 0.43 0.43 0.43 0.41 0.39 0.38 0.37 0.36 0.36 0.36 0.36 0.37 0.38 0.39 0.40 0.41 0.41 0.40 0.40 0.38 0.38 0.37 0.36 0.35 0.34 0.32 0.31 0.31 0.30 0.28 0.27 0.27 0.26 0.25 0.25 0.24 0.23 0.23 0.22 0.22 0.21 0.20 0.20 0.19 0.18 0.17 0.17 0.16 0.15 0.15 0.15 0.16 0.16 0.15 0.15 0.15 0.15 0.14 0.14
0.45 0.44 0.44 0.43 0.43 0.42 0.41 0.40 0.39 0.39 0.38 0.38 0.38 0.39 0.39 0.40 0.41 0.41 0.40 0.39 0.39 0.38 0.38 0.37 0.37 0.36 0.35 0.34 0.33 0.32 0.31 0.31 0.30 0.29 0.28 0.27 0.26 0.25 0.24 0.24 0.23 0.22 0.21 0.21 0.19 0.19 0.18 0.17 0.16 0.16 0.16 0.15 0.15 0.16 0.16 0.15 0.15 0.14 0.14 0.14 0.13 0.13 0.13
0.43 0.43 0.43 0.42 0.42 0.42 0.42 0.41 0.41 0.40 0.40 0.40 0.40 0.41 0.41 0.40 0.40 0.39 0.39 0.39 0.38 0.38 0.37 0.37 0.36 0.35 0.34 0.33 0.32 0.32 0.31 0.30 0.29 0.29 0.28 0.27 0.26 0.26 0.24 0.23 0.22 0.21 0.20 0.19 0.18 0.17 0.16 0.16 0.15 0.15 0.15 0.15 0.15 0.15 0.15 0.15 0.15 0.14 0.14 0.13 0.11 0.10 0.11
0.42 0.42 0.43 0.43 0.43 0.42 0.42 0.41 0.41 0.41 0.42 0.42 0.42 0.41 0.41 0.40 0.40 0.40 0.39 0.38 0.37 0.36 0.36 0.35 0.34 0.33 0.33 0.32 0.31 0.31 0.30 0.29 0.28 0.28 0.27 0.27 0.26 0.25 0.24 0.23 0.21 0.20 0.19 0.18 0.16 0.16 0.15 0.15 0.15 0.15 0.15 0.15 0.15 0.15 0.15 0.14 0.14 0.13 0.12 0.11 0.10 0.10 0.09
0.42 0.42 0.43 0.43 0.42 0.42 0.42 0.41 0.42 0.42 0.42 0.42 0.42 0.41 0.41 0.40 0.40 0.38 0.37 0.36 0.36 0.35 0.34 0.33 0.33 0.32 0.32 0.31 0.31 0.30 0.29 0.28 0.27 0.27 0.26 0.25 0.24 0.23 0.22 0.21 0.21 0.20 0.19 0.18 0.17 0.16 0.15 0.15 0.15 0.15 0.14 0.15 0.15 0.15 0.14 0.13 0.12 0.12 0.11 0.10 0.09 0.09 0.09
0.41 0.42 0.42 0.42 0.42 0.42 0.42 0.42 0.43 0.43 0.43 0.42 0.42 0.41 0.40 0.39 0.38 0.36 0.36 0.35 0.34 0.34 0.33 0.33 0.32 0.31 0.31 0.31 0.30 0.30 0.29 0.27 0.26 0.25 0.24 0.23 0.21 0.20 0.20 0.19 0.19 0.18 0.18 0.17 0.16 0.16 0.15 0.15 0.15 0.15 0.15 0.15 0.15 0.14 0.12 0.12 0.11 0.11 0.10 0.09 0.09 0.09 0.09
0.40 0.40 0.41 0.41 0.42 0.42 0.42 0.42 0.43 0.43 0.43 0.42 0.41 0.40 0.38 0.37 0.36 0.35 0.34 0.34 0.34 0.33 0.33 0.32 0.32 0.31 0.30 0.29 0.28 0.28 0.26 0.25 0.24 0.22 0.21 0.20 0.19 0.18 0.18 0.17 0.17 0.16 0.16 0.16 0.16 0.15 0.15 0.15 0.15 0.15 0.15 0.14 0.14 0.13 0.12 0.12 0.11 0.11 0.10 0.10 0.10 0.09 0.09
0.39 0.40 0.40 0.40 0.41 0.41 0.41 0.42 0.42 0.42 0.42 0.41 0.40 0.39 0.37 0.36 0.35 0.34 0.34 0.34 0.33 0.33 0.33 0.32 0.31 0.29 0.28 0.27 0.26 0.25 0.24 0.23 0.22 0.20 0.19 0.18 0.17 0.17 0.17 0.16 0.16 0.16 0.16 0.16 0.16 0.15 0.15 0.15 0.15 0.14 0.14 0.13 0.13 0.13 0.13 0.12 0.12 0.11 0.10 0.09 0.08 0.07 0.07
0.38 0.39 0.39 0.39 0.40 0.40 0.40 0.41 0.41 0.41 0.41 0.40 0.40 0.38 0.36 0.35 0.34 0.34 0.33 0.33 0.32 0.32 0.31 0.30 0.28 0.27 0.25 0.24 0.23 0.22 0.22 0.21 0.20 0.18 0.17 0.17 0.16 0.16 0.15 0.15 0.15 0.16 0.16 0.16 0.16 0.16 0.16 0.15 0.15 0.15 0.15 0.14 0.14 0.13 0.13 0.11 0.10 0.08 0.08 0.07 0.06 0.06 0.06
0.37 0.38 0.38 0.38 0.38 0.39 0.39 0.39 0.39 0.39 0.39 0.39 0.39 0.37 0.35 0.34 0.33 0.33 0.32 0.31 0.31 0.30 0.29 0.27 0.26 0.25 0.24 0.23 0.22 0.21 0.20 0.19 0.19 0.17 0.17 0.16 0.15 0.15 0.14 0.14 0.14 0.15 0.15 0.15 0.14 0.14 0.14 0.13 0.13 0.12 0.11 0.10 0.10 0.10 0.09 0.09 0.07 0.07 0.07 0.06 0.06 0.05 0.05
0.37 0.37 0.37 0.37 0.37 0.37 0.37 0.37 0.37 0.37 0.37 0.36 0.37 0.36 0.34 0.33 0.32 0.31 0.30 0.29 0.28 0.28 0.27 0.26 0.25 0.24 0.23 0.21 0.20 0.20 0.19 0.18 0.18 0.17 0.16 0.15 0.15 0.14 0.14 0.14 0.14 0.14 0.13 0.13 0.13 0.13 0.12 0.12 0.11 0.11 0.10 0.09 0.09 0.09 0.09 0.08 0.08 0.08 0.07 0.06 0.06 0.06 0.06
0.36 0.36 0.36 0.36 0.36 0.36 0.35 0.35 0.35 0.35 0.35 0.34 0.35 0.34 0.33 0.31 0.30 0.28 0.28 0.27 0.26 0.25 0.24 0.24 0.23 0.23 0.22 0.21 0.20 0.19 0.18 0.18 0.17 0.16 0.16 0.15 0.14 0.13 0.13 0.13 0.14 0.14 0.13 0.13 0.13 0.12 0.12 0.11 0.10 0.10 0.09 0.09 0.08 0.08 0.08 0.08 0.08 0.07 0.07 0.06 0.06 0.06 0.06
0.35 0.35 0.35 0.35 0.35 0.35 0.34 0.34 0.33 0.33 0.33 0.33 0.33 0.33 0.31 0.29 0.28 0.26 0.25 0.24 0.24 0.23 0.23 0.22 0.21 0.21 0.20 0.19 0.19 0.18 0.17 0.17 0.16 0.15 0.15 0.14 0.13 0.13 0.13 0.14 0.14 0.13 0.14 0.13 0.12 0.11 0.11 0.10 0.09 0.09 0.09 0.08 0.08 0.08 0.08 0.08 0.07 0.07 0.07 0.07 0.06 0.06 0.06
0.34 0.34 0.34 0.34 0.33 0.33 0.33 0.33 0.32 0.32 0.31 0.31 0.30 0.30 0.29 0.27 0.25 0.24 0.23 0.23 0.22 0.22 0.21 0.20 0.20 0.19 0.19 0.18 0.18 0.17 0.16 0.15 0.15 0.15 0.15 0.14 0.14 0.14 0.14 0.14 0.14 0.14 0.13 0.12 0.11 0.10 0.10 0.09 0.08 0.08 0.07 0.07 0.07 0.07 0.07 0.07 0.07 0.07 0.07 0.07 0.07 0.07 0.06
0.33 0.33 0.32 0.32 0.32 0.32 0.31 0.31 0.31 0.30 0.29 0.29 0.28 0.27 0.26 0.25 0.24 0.23 0.23 0.22 0.21 0.20 0.20 0.20 0.19 0.18 0.18 0.17 0.16 0.16 0.15 0.15 0.15 0.14 0.14 0.15 0.15 0.15 0.14 0.14 0.14 0.13 0.12 0.11 0.10 0.09 0.09 0.08 0.08 0.07 0.07 0.07 0.06 0.07 0.07 0.07 0.07 0.07 0.07 0.07 0.08 0.08 0.08
0.32 0.31 0.31 0.31 0.31 0.30 0.30 0.30 0.29 0.29 0.28 0.27 0.25 0.24 0.24 0.24 0.24 0.23 0.22 0.21 0.20 0.20 0.19 0.19 0.18 0.18 0.17 0.16 0.16 0.15 0.14 0.14 0.14 0.14 0.14 0.14 0.14 0.14 0.14 0.13 0.12 0.11 0.11 0.10 0.09 0.08 0.08 0.07 0.07 0.07 0.06 0.06 0.06 0.07 0.07 0.07 0.07 0.07 0.07 0.07 0.07 0.08 0.08
0.32 0.31 0.31 0.30 0.29 0.29 0.29 0.29 0.28 0.27 0.26 0.25 0.23 0.23 0.23 0.23 0.22 0.22 0.22 0.21 0.21 0.20 0.19 0.19 0.18 0.17 0.17 0.16 0.15 0.15 0.14 0.14 0.14 0.13 0.13 0.13 0.13 0.13 0.12 0.12 0.11 0.10 0.10 0.09 0.08 0.08 0.07 0.07 0.07 0.06 0.06 0.07 0.07 0.07 0.07 0.07 0.07 0.07 0.08 0.08 0.08 0.08 0.08
0.31 0.30 0.30 0.29 0.29 0.29 0.28 0.28 0.27 0.25 0.24 0.23 0.23 0.23 0.22 0.21 0.21 0.21 0.21 0.21 0.21 0.20 0.19 0.19 0.18 0.17 0.17 0.16 0.15 0.15 0.14 0.14 0.13 0.13 0.13 0.13 0.13 0.12 0.11 0.11 0.10 0.10 0.09 0.08 0.08 0.07 0.07 0.06 0.06 0.06 0.07 0.07 0.07 0.07 0.07 0.07 0.07 0.07 0.07 0.07 0.07 0.07 0.07
0.31 0.30 0.30 0.29 0.29 0.28 0.27 0.26 0.25 0.24 0.23 0.23 0.23 0.22 0.21 0.21 0.21 0.21 0.21 0.21 0.20 0.20 0.19 0.19 0.18 0.17 0.17 0.16 0.15 0.15 0.14 0.14 0.14 0.13 0.13 0.13 0.12 0.12 0.11 0.11 0.10 0.09 0.08 0.08 0.07 0.07 0.07 0.06 0.07 0.07 0.07 0.07 0.07 0.07 0.07 0.07 0.07 0.07 0.07 0.07 0.07 0.06 0.06
0.31 0.30 0.30 0.29 0.28 0.27 0.26 0.25 0.25 0.24 0.24 0.23 0.22 0.21 0.21 0.21 0.21 0.20 0.20 0.20 0.20 0.19 0.19 0.18 0.18 0.17 0.16 0.16 0.15 0.14 0.14 0.14 0.13 0.13 0.13 0.12 0.12 0.11 0.11 0.10 0.10 0.09 0.09 0.08 0.07 0.07 0.07 0.06 0.06 0.06 0.06 0.07 0.07 0.07 0.07 0.07 0.07 0.07 0.07 0.07 0.06 0.06 0.05
0.31 0.31 0.30 0.29 0.28 0.27 0.26 0.26 0.25 0.24 0.23 0.22 0.22 0.22 0.21 0.21 0.20 0.20 0.20 0.20 0.19 0.19 0.19 0.18 0.17 0.16 0.15 0.15 0.14 0.14 0.13 0.13 0.13 0.12 0.12 0.11 0.11 0.10 0.10 0.09 0.09 0.08 0.08 0.07 0.07 0.06 0.06 0.06 0.06 0.06 0.07 0.07 0.07 0.07 0.07 0.07 0.07 0.07 0.06 0.06 0.06 0.06 0.05
0.31 0.30 0.30 0.28 0.28 0.28 0.27 0.26 0.24 0.24 0.23 0.23 0.23 0.22 0.21 0.21 0.20 0.20 0.20 0.19 0.19 0.19 0.18 0.17 0.16 0.15 0.15 0.14 0.14 0.13 0.13 0.12 0.12 0.11 0.11 0.10 0.10 0.10 0.09 0.09 0.08 0.08 0.07 0.07 0.07 0.06 0.06 0.06 0.06 0.06 0.07 0.07 0.06 0.06 0.07 0.07 0.07 0.06 0.06 0.06 0.06 0.05 0.05
0.30 0.30 0.30 0.29 0.28 0.27 0.27 0.26 0.25 0.24 0.23 0.23 0.22 0.22 0.21 0.21 0.20 0.20 0.20 0.19 0.19 0.18 0.17 0.16 0.15 0.15 0.14 0.14 0.13 0.13 0.12 0.12 0.11 0.11 0.10 0.10 0.09 0.09 0.09 0.08 0.08 0.08 0.07 0.07 0.07 0.07 0.07 0.07 0.07 0.06 0.07 0.06 0.06 0.06 0.06 0.07 0.07 0.06 0.06 0.06 0.06 0.06 0.05
0.30 0.30 0.29 0.28 0.27 0.26 0.26 0.25 0.24 0.24 0.23 0.22 0.22 0.21 0.21 0.20 0.20 0.20 0.20 0.19 0.18 0.17 0.16 0.16 0.15 0.14 0.14 0.13 0.13 0.12 0.12 0.11 0.11 0.10 0.10 0.09 0.09 0.09 0.08 0.08 0.08 0.08 0.07 0.07 0.07 0.07 0.07 0.07 0.07 0.07 0.06 0.06 0.06 0.06 0.06 0.06 0.06 0.06 0.06 0.06 0.06 0.06 0.06
0.29 0.28 0.27 0.27 0.26 0.26 0.25 0.24 0.24 0.23 0.22 0.21 0.21 0.20 0.20 0.20 0.20 0.19 0.19 0.18 0.17 0.16 0.15 0.15 0.14 0.14 0.13 0.13 0.12 0.12 0.11 0.11 0.10 0.10 0.10 0.09 0.09 0.08 0.08 0.08 0.08 0.08 0.07 0.07 0.07 0.07 0.07 0.07 0.07 0.06 0.06 0.06 0.06 0.06 0.06 0.06 0.06 0.06 0.06 0.06 0.06 0.06 0.06
0.28 0.27 0.26 0.26 0.25 0.24 0.24 0.23 0.22 0.21 0.20 0.20 0.20 0.19 0.20 0.19 0.19 0.19 0.18 0.17 0.16 0.16 0.15 0.14 0.14 0.13 0.13 0.12 0.12 0.11 0.11 0.10 0.10 0.10 0.09 0.09 0.09 0.09 0.08 0.08 0.08 0.07 0.07 0.07 0.07 0.07 0.07 0.07 0.06 0.06 0.06 0.06 0.06 0.06 0.06 0.06 0.06 0.06 0.06 0.05 0.05 0.05 0.05
0.25 0.26 0.25 0.24 0.24 0.23 0.22 0.21 0.21 0.20 0.20 0.20 0.20 0.19 0.19 0.19 0.18 0.17 0.16 0.16 0.15 0.15 0.14 0.14 0.13 0.13 0.12 0.12 0.11 0.11 0.11 0.10 0.10 0.10 0.09 0.09 0.09 0.08 0.08 0.08 0.07 0.07 0.07 0.07 0.07 0.07 0.06 0.06 0.06 0.06 0.06 0.06 0.05 0.06 0.05 0.05 0.06 0.06 0.06 0.05 0.05 0.05 0.05
0.24 0.24 0.23 0.23 0.22 0.21 0.21 0.21 0.20 0.20 0.20 0.20 0.19 0.19 0.18 0.17 0.16 0.16 0.15 0.14 0.14 0.14 0.14 0.13 0.13 0.12 0.12 0.11 0.11 0.11 0.10 0.10 0.10 0.09 0.09 0.09 0.09 0.08 0.08 0.07 0.07 0.07 0.07 0.07 0.07 0.06 0.06 0.06 0.05 0.05 0.05 0.06 0.05 0.05 0.05 0.05 0.05 0.05 0.05 0.05 0.05 0.05 0.05
Wind_Speed
26 27 27 28 29 29 29 29 29 30 30 30 30 30 30 30 30 30 30 30 30 30 30 30 30 30 30 30 31 31 30 29 29 29 29 29 29 29 29 29 30 30 30 31 31 32 32 32 32 33 33 33 34 35 35 35 36 36 36 37 37 38 39
26 26 27 28 28 29 29 29 29 29 29 29 29 30 30 30 30 30 30 30 30 30 30 30 30 30 30 31 31 31 30 30 30 29 28 28 28 28 29 29 29 30 30 31 31 32 32 32 32 33 33 34 35 35 36 36 37 37 37 38 38 39 40
25 26 27 27 28 28 28 28 28 28 28 28 29 29 29 30 30 30 30 30 30 30 30 30 30 30 30 30 30 29 29 30 29 29 28 28 28 28 29 29 29 30 30 31 31 31 32 32 33 33 34 34 35 36 36 37 38 38 38 39 39 40 41
26 26 26 27 28 28 28 28 28 28 28 28 29 29 29 29 29 30 30 30 30 31 31 31 31 31 30 30 29 29 29 29 29 28 28 28 28 29 29 29 29 30 30 30 31 31 32 33 33 34 34 35 36 36 37 37 38 39 39 40 40 41 42
25 26 26 27 27 28 27 28 28 28 28 28 28 29 29 29 29 29 30 30 31 31 31 31 31 31 30 30 30 30 30 29 29 29 29 29 29 29 29 30 30 30 30 30 31 32 33 33 34 34 35 35 36 36 37 38 38 39 39 40 41 42 43
25 26 26 26 27 27 27 26 27 28 28 28 28 28 29 29 29 29 29 30 30 31 30 30 30 30 30 30 30 30 30 29 29 29 29 29 29 29 30 30 30 30 30 31 31 32 33 33 34 34 35 35 36 37 38 38 39 39 40 41 42 43 44
25 25 26 26 26 26 26 26 27 27 28 28 28 28 28 28 28 28 29 29 29 29 29 30 30 30 30 30 30 30 30 30 30 30 30 30 30 30 30 30 30 30 30 31 31 32 33 33 34 35 36 36 37 38 39 39 40 41 41 42 43 44 45
25 25 26 26 26 26 26 26 26 27 27 27 28 27 27 27 27 28 28 28 29 28 29 29 30 30 30 30 30 30 30 30 30 30 30 30 30 30 30 30 30 31 31 31 32 33 33 34 35 36 37 37 38 39 39 40 41 42 43 44 44 45 46
25 25 25 25 25 26 26 25 26 26 26 27 27 27 27 27 27 27 28 28 29 28 28 28 29 30 30 30 30 30 30 30 30 30 30 30 30 30 30 31 31 31 32 32 33 34 34 35 36 37 37 38 38 39 40 41 42 43 44 45 46 46 47
25 24 25 25 25 25 25 25 25 25 26 26 27 27 27 27 27 28 28 28 28 28 28 28 29 29 30 30 31 31 30 30 30 29 29 29 30 30 30 31 31 32 32 33 34 34 35 36 37 37 38 39 39 40 41 42 43 44 45 46 47 47 47
23 23 24 24 24 25 25 24 24 25 26 26 27 27 27 27 27 26 26 26 27 27 28 28 29 29 29 30 30 30 30 30 29 29 29 30 30 30 31 31 32 32 33 34 34 35 36 37 38 38 39 40 41 41 42 43 44 45 47 47 48 48 48
22 22 23 23 24 24 24 24 24 25 25 26 26 26 26 26 26 25 25 26 26 27 27 28 29 29 29 30 29 29 29 29 29 30 30 30 31 31 32 32 33 33 34 35 35 36 37 38 39 39 40 41 41 42 43 45 46 47 48 48 49 49 49
21 22 22 23 23 23 23 24 24 24 25 25 25 25 25 25 25 25 25 25 26 26 27 27 28 28 28 29 29 29 29 29 29 30 30 31 31 32 32 33 34 35 35 36 36 37 38 39 39 40 41 42 43 44 45 46 47 48 49 49 50 50 51
21 21 21 22 22 22 23 23 24 24 24 24 24 24 23 24 24 24 25 25 26 26 26 26 26 26 27 27 28 28 28 29 29 29 30 31 32 32 33 34 35 35 36 36 37 38 39 39 40 41 43 43 45 46 47 48 49 49 50 50 51 51 52
21 21 21 21 21 21 22 23 23 24 24 24 23 23 23 23 24 24 25 25 25 25 25 25 26 26 26 27 27 28 28 28 29 29 30 31 32 33 33 34 35 36 36 37 38 39 40 41 42 43 44 45 46 47 48 49 50 50 51 51 52 52 52
21 20 20 20 20 21 21 21 22 23 23 23 23 23 23 23 24 24 24 24 24 24 25 25 25 26 26 27 27 28 28 29 29 30 31 32 32 33 34 35 36 37 37 38 39 40 41 43 44 45 46 46 47 48 49 50 50 51 51 52 52 52 52
20 20 19 20 20 20 20 20 21 21 22 22 23 23 23 23 23 23 23 23 23 23 24 25 25 26 26 27 28 28 29 29 30 31 32 32 33 34 35 36 36 37 38 40 41 42 43 44 45 46 47 48 49 50 50 50 51 51 51 52 52 53 52
20 20 19 19 19 19 20 20 20 20 21 22 22 22 22 23 23 22 22 22 23 23 24 24 25 26 26 27 28 28 29 30 30 31 32 33 34 35 36 37 37 38 39 41 42 43 44 45 46 47 48 49 50 51 51 51 52 52 52 53 53 53 53
20 20 19 19 19 19 19 19 19 20 21 21 22 22 22 22 22 22 22 23 23 24 24 25 26 26 27 27 28 29 30 31 31 32 33 34 35 36 37 38 38 39 40 41 43 44 45 46 47 48 49 50 51 51 51 52 52 52 53 53 53 53 53
20 20 20 19 19 19 19 19 20 20 21 22 22 22 22 22 22 22 23 23 24 25 25 26 27 27 28 29 30 30 31 32 33 34 34 35 36 37 38 38 39 40 41 43 44 45 46 47 48 49 50 50 51 52 52 53 53 53 53 53 54 54 54
21 20 20 20 20 20 20 20 21 21 22 22 22 22 22 22 23 23 24 24 25 26 26 27 28 29 29 30 31 32 33 34 34 35 36 36 37 38 39 40 41 42 43 44 45 46 47 48 49 50 50 51 51 52 52 53 53 53 53 53 54 54 54
21 20 20 20 20 20 21 21 21 22 22 23 23 23 23 23 24 24 24 25 26 27 28 28 29 30 31 31 32 33 34 35 36 36 37 38 39 40 41 42 43 44 45 46 47 48 48 49 50 50 51 51 52 52 52 52 53 53 53 54 54 55 55
21 21 20 21 21 21 22 22 23 23 23 24 24 24 24 24 24 25 25 26 27 28 28 29 30 31 31 32 33 34 35 36 37 38 38 39 40 41 42 43 44 45 46 47 48 49 49 50 50 51 52 52 51 52 52 52 53 53 53 54 54 55 55
21 21 21 21 22 22 23 23 24 24 25 25 25 26 26 26 26 27 27 28 29 29 30 31 31 32 33 34 35 36 37 37 38 39 40 41 42 43 44 45 46 47 48 48 49 50 50 51 51 51 51 51 51 51 52 52 52 53 53 53 54 54 54
22 22 22 22 23 23 24 24 25 25 26 26 27 27 27 28 28 28 29 30 31 31 32 32 33 34 35 36 37 37 38 38 39 40 41 42 43 44 45 46 47 48 49 49 50 51 51 51 51 51 51 51 51 51 52 51 51 52 52 52 52 52 52
23 23 23 23 24 25 25 26 26 27 27 27 28 28 29 29 30 30 31 32 32 33 34 34 35 36 37 37 38 39 39 40 41 41 43 44 45 45 46 47 48 49 49 50 51 51 52 52 52 51 51 51 51 51 51 50 50 50 50 50 50 50 50
25 24 24 25 25 26 27 27 28 28 29 29 29 30 30 31 32 32 33 34 34 35 36 36 37 38 38 39 40 40 41 41 42 43 44 45 46 47 47 48 49 50 51 51 52 52 52 52 51 51 51 51 51 50 50 49 49 49 49 48 48 48 48
26 26 26 26 27 27 28 29 29 30 30 30 31 31 32 32 33 34 35 35 36 37 37 38 39 39 40 41 41 42 42 43 44 45 46 46 47 48 49 49 50 51 51 52 52 53 52 52 51 51 50 50 50 50 49 48 48 48 47 46 46 46 45
28 28 28 28 28 29 29 30 31 31 31 31 32 32 33 34 35 36 36 37 38 38 39 40 40 41 41 42 42 43 44 45 46 46 47 48 48 49 49 50 51 51 52 52 52 52 52 51 51 50 50 50 49 49 48 47 47 46 45 44 44 43 43
29 29 29 30 30 30 31 31 31 31 32 32 33 34 35 36 37 37 38 39 39 40 41 41 42 42 43 43 44 45 45 46 47 47 48 49 49 50 50 51 51 52 52 52 52 51 51 50 50 50 49 49 48 48 47 46 45 44 43 43 42 42 41
30 30 31 31 32 32 32 32 32 32 33 34 35 36 37 38 39 39 40 40 41 42 42 43 43 43 44 44 45 46 47 47 48 48 49 50 50 50 51 51 52 52 52 52 51 51 50 50 50 49 48 48 47 46 45 45 44 43 42 41 41 40 40
31 32 32 32 32 33 33 33 33 34 35 36 37 38 39 40 40 41 41 42 42 43 44 44 44 45 45 46 46 47 48 48 49 49 50 50 51 51 51 52 52 52 51 51 51 50 50 49 49 48 47 46 46 45 44 43 42 42 41 41 40 40 39
33 33 33 33 33 33 34 34 35 35 36 38 39 40 40 41 42 42 43 43 44 45 45 45 46 46 47 47 48 48 49 49 50 51 51 51 52 52 52 52 52 52 51 51 50 50 49 48 48 47 46 45 44 43 43 42 41 41 40 40 39 39 38
33 33 33 33 34 34 35 35 36 38 39 40 41 41 42 42 43 44 44 45 45 46 46 46 47 48 48 48 49 49 50 51 51 51 52 52 52 53 53 52 52 51 51 50 49 49 48 47 46 45 45 44 43 42 41 41 40 40 40 39 38 38 37
34 34 34 34 34 35 36 37 39 40 40 41 41 42 43 43 44 45 45 46 46 47 48 48 48 49 49 50 50 51 51 51 52 52 52 53 53 53 53 52 51 50 50 49 48 48 47 46 45 44 44 43 42 41 41 40 40 39 39 38 38 37 36
34 34 34 35 36 37 38 39 40 41 41 42 43 43 44 45 46 46 47 47 48 48 49 49 50 50 50 51 51 51 52 52 53 53 53 53 53 53 52 52 51 50 49 48 48 47 46 45 44 44 43 42 41 41 40 40 39 39 38 38 37 36 35
Wind_Direction
266 262 259 255 252 250 249 248 246 246 245 245 244 244 244 244 243 242 242 243 243 245 247 249 252 255 258 260 262 263 264 266 268 269 269 271 271 270 269 268 266 265 264 265 265 266 267 268 270 271 272 273 274 275 277 278 278 279 279 280 281 282 282
267 263 259 256 253 251 250 249 247 246 245 244 244 244 244 244 243 242 243 244 244 245 247 250 253 256 258 261 262 263 265 266 268 268 269 270 270 269 269 268 266 265 265 266 267 267 268 269 271 272 274 275 276 276 278 278 279 280 280 281 282 283 284
268 264 259 256 254 252 250 249 247 246 244 243 243 243 244 245 244 243 243 244 246 247 247 249 253 256 258 260 262 263 264 266 268 268 269 270 270 269 269 268 267 267 266 267 267 268 269 271 273 274 275 276 276 277 278 279 280 281 281 282 283 284 284
268 264 260 256 253 252 250 248 246 244 243 244 244 244 244 245 246 245 245 245 247 248 250 251 253 255 257 259 261 262 263 265 267 269 269 269 269 269 268 268 267 267 266 267 268 269 270 272 274 274 275 276 277 278 279 280 280 281 282 283 284 284 285
268 264 261 257 253 252 251 248 246 243 242 243 244 245 245 246 247 247 247 247 247 249 251 254 255 256 257 259 261 262 264 265 267 269 269 269 269 269 268 268 267 267 267 268 269 270 272 273 274 274 275 277 278 278 279 280 281 281 282 283 284 285 285
268 265 261 258 254 252 251 249 246 244 242 243 244 245 246 247 248 249 249 250 250 250 252 254 255 256 258 260 261 262 263 265 267 268 268 268 268 268 268 267 267 267 268 269 271 272 272 273 274 275 276 277 278 279 280 281 281 282 283 283 284 285 285
268 265 262 259 255 252 251 250 247 245 243 242 243 245 246 247 248 249 251 252 252 252 252 252 254 257 259 260 261 263 264 265 267 267 267 268 268 268 267 267 268 269 270 271 272 272 273 274 275 276 277 278 280 280 281 281 282 283 284 284 285 286 287
266 264 262 259 255 252 251 250 248 246 244 243 244 245 246 248 249 250 251 252 253 253 253 254 255 256 258 260 262 263 265 266 267 267 267 267 268 268 268 269 270 271 272 272 272 273 274 275 276 277 278 279 281 281 282 282 283 284 285 285 286 287 287
266 264 261 258 253 251 251 250 248 247 245 245 245 246 247 248 249 250 251 252 252 253 254 255 255 255 257 259 261 263 265 266 266 266 267 268 268 269 270 270 271 272 272 273 273 274 275 276 278 279 280 281 282 282 283 284 284 285 285 286 287 288 288
264 263 260 256 252 250 251 251 249 247 246 246 246 247 248 249 250 251 252 252 253 253 254 256 256 256 257 259 261 263 264 265 266 266 267 269 270 271 271 272 273 273 274 274 275 276 277 278 279 280 281 282 282 283 284 284 285 286 286 287 288 289 289
264 262 259 255 251 250 250 250 249 247 246 246 246 248 248 249 250 251 252 253 254 254 255 256 258 259 260 261 262 262 263 264 265 266 268 269 270 271 272 273 274 275 275 276 276 277 278 278 280 281 282 283 283 284 284 285 286 287 288 288 289 289 289
264 262 258 253 250 249 250 249 248 247 247 246 246 248 249 250 251 251 252 254 255 256 256 258 259 261 262 262 262 263 264 265 266 268 269 270 270 271 272 273 274 275 276 277 278 278 279 280 281 282 283 283 284 285 285 286 287 288 288 289 288 288 289
264 262 257 251 248 249 249 249 248 248 247 247 247 247 249 250 251 252 253 255 256 258 259 260 261 261 262 262 263 264 265 267 268 269 269 270 271 272 274 274 275 276 277 278 278 279 280 281 281 283 284 284 285 286 287 288 288 288 288 289 289 289 290
264 261 256 250 248 248 249 249 248 248 247 247 247 247 249 250 252 253 254 256 258 259 260 261 261 262 263 264 265 266 266 267 268 269 271 272 273 274 275 276 277 277 278 278 279 280 281 282 283 284 285 286 286 287 288 288 289 289 289 289 289 290 291
263 259 255 250 248 248 249 249 248 247 247 247 246 247 249 251 252 254 255 257 259 260 261 261 262 263 264 265 266 266 266 267 269 270 272 273 274 275 276 277 277 278 278 279 280 281 282 283 284 285 286 287 287 288 288 289 289 289 290 290 290 291 291
262 258 254 250 248 249 249 250 249 247 247 246 246 247 250 251 253 254 256 258 259 260 261 262 264 265 266 267 267 268 268 269 270 271 272 274 275 276 277 277 278 279 279 280 281 282 283 284 285 286 287 288 288 289 289 289 290 290 290 290 290 291 291
260 257 253 250 249 249 250 250 249 247 247 247 247 248 250 251 253 254 256 257 259 261 263 264 265 266 267 268 269 270 270 271 272 273 274 275 276 277 278 279 279 280 281 282 283 284 285 286 287 288 288 289 289 289 289 290 290 290 290 290 290 291 291
257 255 253 251 250 250 250 250 249 247 246 247 247 249 251 252 253 254 256 258 260 262 263 265 266 267 268 270 270 271 272 273 274 275 275 276 277 278 279 280 281 282 283 284 285 286 287 288 288 289 289 289 289 289 289 289 289 290 290 290 290 291 291
255 253 253 252 252 251 251 250 249 248 247 248 249 250 252 253 254 256 258 260 262 263 264 266 267 267 269 270 271 272 273 274 275 276 277 278 279 280 281 282 284 285 286 287 287 288 289 289 289 289 290 290 290 290 289 289 290 290 290 290 290 291 291
254 252 252 252 252 252 251 251 250 250 250 250 251 251 253 254 256 258 260 262 263 265 266 267 269 270 271 272 273 274 275 276 277 278 279 280 280 281 283 284 285 286 287 288 289 289 290 290 290 290 290 290 290 290 290 290 290 290 290 290 290 290 290
253 252 252 252 252 252 251 251 252 252 252 253 253 253 254 256 258 260 262 264 265 267 268 270 271 273 274 275 276 277 278 279 279 280 281 282 282 283 285 286 287 287 288 289 290 290 291 291 291 291 291 291 291 291 291 290 290 290 289 289 290 290 290
254 253 252 252 252 252 252 253 254 254 255 255 255 255 256 258 260 262 264 266 268 269 271 273 274 276 277 278 279 280 281 281 281 282 283 283 284 285 286 287 288 289 289 290 291 291 291 291 292 292 291 292 292 291 291 291 290 290 289 289 289 290 290
254 253 252 252 252 252 253 255 256 256 257 257 257 258 259 260 262 264 266 268 270 272 274 275 277 278 279 280 281 282 283 283 283 284 284 285 285 286 286 288 289 289 290 291 291 291 292 292 292 292 292 292 292 292 291 291 291 290 290 290 290 290 290
255 253 252 252 253 254 255 257 258 259 259 259 260 260 262 263 264 266 268 270 272 274 276 277 279 280 281 282 283 283 284 284 284 285 285 286 286 287 288 289 289 290 291 291 291 291 292 292 292 292 293 293 292 292 292 291 291 291 290 290 290 290 290
255 254 253 253 254 256 258 259 260 261 261 261 262 263 264 265 266 268 270 272 274 276 277 278 280 281 282 283 283 284 284 285 285 286 286 287 287 288 289 290 290 291 291 291 291 291 292 292 293 293 293 293 292 292 292 292 291 291 291 291 290 290 290
255 255 254 254 256 257 259 261 261 262 262 263 264 265 266 267 269 270 272 274 276 277 278 279 281 281 282 283 283 284 285 285 286 286 287 288 289 289 290 291 291 291 291 291 292 292 292 293 293 293 293 292 292 292 292 292 292 292 292 292 292 292 291
256 256 256 256 258 259 261 262 262 263 264 265 266 267 268 269 271 273 274 276 277 279 280 281 282 282 283 283 284 285 285 286 287 288 288 289 290 290 291 291 292 292 292 292 292 293 293 293 293 293 293 292 292 292 292 292 292 292 293 292 292 292 292
257 257 257 257 259 260 262 263 263 264 265 266 267 268 270 271 273 274 276 277 279 280 281 282 283 283 284 284 285 285 286 287 288 289 289 290 291 291 291 292 292 292 292 293 293 293 293 293 293 293 293 292 292 292 292 292 292 292 292 293 292 292 291
258 258 259 259 260 261 263 264 265 266 266 267 268 269 271 272 274 276 277 278 279 281 282 283 283 284 284 284 285 286 287 288 288 289 290 290 291 291 292 292 292 292 293 293 293 293 293 293 293 292 292 292 292 292 292 292 292 292 292 292 292 291 291
262 262 262 263 263 264 265 266 267 268 268 268 269 270 272 273 275 276 278 279 280 282 283 283 283 284 284 285 285 286 287 288 289 290 290 291 291 292 292 292 292 292 293 293 293 293 292 292 292 292 292 292 292 292 292 292 291 291 292 291 291 291 290
264 264 263 264 265 266 267 268 269 269 269 269 271 272 273 274 276 277 279 280 281 282 283 283 283 284 284 285 286 287 288 288 289 290 291 291 292 292 292 292 292 293 293 293 292 292 292 292 292 292 292 292 291 291 291 291 291 291 291 291 291 290 289
264 265 265 265 266 267 268 269 269 270 271 271 273 274 275 276 277 278 279 280 281 282 282 283 283 284 285 285 286 287 288 289 289 290 291 291 292 292 292 292 292 292 292 292 292 292 292 292 292 291 291 291 290 290 290 290 290 290 290 290 290 289 288
265 265 266 266 267 268 269 270 271 272 273 274 275 276 277 278 278 279 280 280 281 282 282 283 283 284 285 286 287 287 288 289 289 290 291 291 291 292 292 292 292 292 292 292 291 291 291 291 291 291 290 290 289 289 289 289 289 289 289 289 289 288 288
266 266 266 267 268 269 270 271 272 273 274 275 276 277 278 279 279 280 281 281 281 282 282 282 283 284 285 286 287 288 288 289 289 290 290 291 291 292 292 292 292 292 291 291 291 291 290 290 290 289 289 288 288 288 288 288 288 288 288 288 288 287 287
266 266 267 267 268 270 271 273 274 275 275 276 277 278 279 279 280 281 281 281 281 281 282 282 283 284 285 286 287 288 288 289 289 290 290 291 291 291 292 292 291 291 291 290 290 290 289 289 289 288 287 287 287 287 287 287 286 286 286 286 286 286 286
267 267 267 268 269 272 273 275 275 276 277 278 278 279 279 280 281 281 281 281 281 281 282 283 284 285 286 286 287 288 288 289 289 290 290 290 291 291 291 291 291 290 290 289 289 288 288 288 287 287 286 286 286 286 286 285 285 285 285 284 284 284 283